| time (UTC) | temp C | wind direction | speed KPH | gust KPH | rain 1hr cm | rain 24hr cm | rain mn cm | humidity % | barometer mb |
| 20260504000940 | 12 | 252 | 9.7 | 11.3 | 0.00 | 0.00 | 0.00 | 100 | 1118.3 |
| 20260504000039 | 12 | 218 | 12.9 | 25.7 | 0.00 | 0.00 | 0.00 | 100 | 1117.9 |
| 20260503235040 | 12 | 229 | 8.0 | 11.3 | 0.00 | 0.00 | 0.00 | 100 | 1118.0 |
| 20260503234139 | 13 | 224 | 9.7 | 16.1 | 0.00 | 0.00 | 0.00 | 100 | 1118.1 |
| 20260503233138 | 13 | 224 | 8.0 | 12.9 | 0.00 | 0.00 | 0.00 | 100 | 1118.1 |
| 20260503231142 | 13 | 215 | 12.9 | 20.9 | 0.00 | 0.00 | 0.00 | 100 | 1118.2 |
| 20260503230141 | 13 | 231 | 12.9 | 30.6 | 0.00 | 0.00 | 0.00 | 100 | 1118.4 |
| 20260503223140 | 13 | 236 | 17.7 | 32.2 | 0.00 | 0.00 | 0.00 | 100 | 1118.5 |
| 20260503222239 | 13 | 235 | 11.3 | 17.7 | 0.00 | 0.00 | 0.00 | 100 | 1118.6 |
| 20260503220239 | 13 | 226 | 19.3 | 30.6 | 0.00 | 0.00 | 0.00 | 100 | 1118.7 |
| 20260503215238 | 13 | 214 | 12.9 | 22.5 | 0.00 | 0.00 | 0.00 | 100 | 1118.7 |
| 20260503214240 | 13 | 230 | 9.7 | 12.9 | 0.00 | 0.00 | 0.00 | 100 | 1118.7 |
| 20260503213240 | 13 | 221 | 20.9 | 27.4 | 0.00 | 0.00 | 0.00 | 100 | 1118.9 |
| 20260503211340 | 14 | 236 | 11.3 | 14.5 | 0.00 | 0.00 | 0.00 | 100 | 1118.7 |
| 20260503210337 | 14 | 228 | 11.3 | 19.3 | 0.00 | 0.00 | 0.00 | 100 | 1118.9 |
| 20260503205340 | 14 | 213 | 11.3 | 17.7 | 0.00 | 0.00 | 0.00 | 100 | 1118.9 |
| 20260503204438 | 14 | 219 | 14.5 | 25.7 | 0.00 | 0.00 | 0.00 | 100 | 1119.0 |
| 20260503203440 | 14 | 246 | 12.9 | 17.7 | 0.00 | 0.00 | 0.00 | 100 | 1119.1 |
| 20260503202440 | 14 | 229 | 14.5 | 19.3 | 0.00 | 0.00 | 0.00 | 100 | 1119.2 |
| 20260503201440 | 14 | 220 | 12.9 | 16.1 | 0.00 | 0.00 | 0.00 | 100 | 1119.3 |
| 20260503200538 | 14 | 214 | 14.5 | 25.7 | 0.00 | 0.00 | 0.00 | 100 | 1119.5 |
| 20260503195539 | 14 | 231 | 9.7 | 14.5 | 0.00 | 0.00 | 0.00 | 100 | 1119.4 |
| 20260503194539 | 15 | 239 | 12.9 | 20.9 | 0.00 | 0.00 | 0.00 | 100 | 1119.7 |
| 20260503193623 | 15 | 221 | 11.3 | 17.7 | 0.00 | 0.00 | 0.00 | 100 | 1119.8 |
| 20260503192639 | 13 | 251 | 8.0 | 11.3 | 0.00 | 0.00 | 0.00 | 100 | 1120.0 |
| 20260503191638 | 13 | 222 | 14.5 | 22.5 | 0.00 | 0.00 | 0.00 | 100 | 1120.2 |
| 20260503190638 | 14 | 223 | 14.5 | 22.5 | 0.00 | 0.00 | 0.00 | 100 | 1120.2 |
| 20260503185640 | 13 | 231 | 11.3 | 16.1 | 0.00 | 0.00 | 0.00 | 100 | 1120.6 |
| 20260503183740 | 14 | 244 | 8.0 | 14.5 | 0.00 | 0.00 | 0.00 | 100 | 1120.8 |
| 20260503181839 | 13 | 223 | 12.9 | 22.5 | 0.00 | 0.00 | 0.00 | 100 | 1120.8 |
| 20260503180839 | 13 | 223 | 12.9 | 22.5 | 0.00 | 0.00 | 0.00 | 100 | 1121.2 |
| 20260503175839 | 13 | 264 | 9.7 | 17.7 | 0.00 | 0.00 | 0.00 | 100 | 1121.1 |
| 20260503173841 | 13 | 247 | 9.7 | 14.5 | 0.00 | 0.00 | 0.00 | 100 | 1121.2 |
| 20260503172840 | 13 | 239 | 14.5 | 20.9 | 0.00 | 0.00 | 0.00 | 100 | 1121.5 |
| 20260503171939 | 13 | 208 | 14.5 | 24.1 | 0.00 | 0.00 | 0.00 | 100 | 1121.5 |
| 20260503171039 | 13 | 227 | 11.3 | 19.3 | 0.00 | 0.00 | 0.00 | 100 | 1121.8 |
| 20260503150438 | 10 | 222 | 12.9 | 19.3 | 0.00 | 0.00 | 0.00 | 100 | 1122.8 |
| 20260503130938 | 7 | 215 | 8.0 | 11.3 | 0.00 | 0.00 | 0.00 | 100 | 1123.2 |
| 20260503100240 | 1 | 202 | 1.6 | 4.8 | 0.00 | 0.00 | 0.00 | 100 | 1121.1 |
| 20260503080639 | 2 | 232 | 3.2 | 3.2 | 0.00 | 0.00 | 0.00 | 100 | 1121.4 |
| 20260503072639 | 2 | 231 | 4.8 | 6.4 | 0.00 | 0.00 | 0.00 | 100 | 1121.2 |
| 20260503071636 | 2 | 247 | 4.8 | 6.4 | 0.00 | 0.00 | 0.00 | 100 | 1121.5 |
| 20260503070638 | 2 | 225 | 3.2 | 4.8 | 0.00 | 0.00 | 0.00 | 100 | 1121.3 |
| 20260503070538 | 2 | 225 | 3.2 | 4.8 | 0.00 | 0.00 | 0.00 | 100 | 1121.3 |
| 20260503054638 | 2 | 225 | 1.6 | 4.8 | 0.00 | 0.00 | 0.00 | 100 | 1121.7 |
| 20260503053737 | 2 | 225 | 1.6 | 3.2 | 0.00 | 0.00 | 0.00 | 100 | 1121.9 |
| 20260503051839 | 2 | 202 | 0.0 | 1.6 | 0.00 | 0.00 | 0.00 | 100 | 1121.8 |
| 20260503050937 | 2 | 202 | 0.0 | 1.6 | 0.00 | 0.00 | 0.00 | 100 | 1121.8 |
| 20260503044938 | 2 | 202 | 1.6 | 3.2 | 0.00 | 0.00 | 0.00 | 100 | 1121.9 |
| 20260503043938 | 2 | 202 | 0.0 | 0.0 | 0.00 | 0.00 | 0.00 | 100 | 1121.9 |
| 20260503043038 | 3 | 202 | 1.6 | 1.6 | 0.00 | 0.00 | 0.00 | 100 | 1121.8 |
| 20260503041138 | 3 | 202 | 1.6 | 1.6 | 0.00 | 0.00 | 0.00 | 100 | 1122.0 |
| 20260503040235 | 3 | 225 | 0.0 | 1.6 | 0.00 | 0.00 | 0.00 | 100 | 1122.1 |
| 20260503035245 | 3 | 202 | 1.6 | 4.8 | 0.00 | 0.00 | 0.00 | 100 | 1122.1 |
| 20260503034245 | 3 | 202 | 3.2 | 3.2 | 0.00 | 0.00 | 0.00 | 100 | 1122.1 |
| 20260503033245 | 3 | 157 | 0.0 | 1.6 | 0.00 | 0.00 | 0.00 | 100 | 1122.2 |
| 20260503032244 | 3 | 157 | 0.0 | 1.6 | 0.00 | 0.00 | 0.00 | 100 | 1122.2 |
| 20260503030245 | 3 | 157 | 0.0 | 0.0 | 0.00 | 0.00 | 0.00 | 100 | 1122.4 |
| 20260503025244 | 3 | 157 | 1.6 | 3.2 | 0.00 | 0.00 | 0.00 | 100 | 1122.3 |
| 20260503024227 | 3 | 157 | 0.0 | 1.6 | 0.00 | 0.00 | 0.00 | 100 | 1122.5 |
| 20260503023245 | 3 | 157 | 1.6 | 3.2 | 0.00 | 0.00 | 0.00 | 100 | 1122.5 |
| 20260503022329 | 3 | 157 | 1.6 | 1.6 | 0.00 | 0.00 | 0.00 | 100 | 1122.6 |
| 20260503021345 | 3 | 157 | 1.6 | 3.2 | 0.00 | 0.00 | 0.00 | 100 | 1122.3 |
| 20260503020343 | 3 | 157 | 3.2 | 4.8 | 0.00 | 0.00 | 0.00 | 100 | 1122.3 |
| 20260503015346 | 3 | 157 | 1.6 | 3.2 | 0.00 | 0.00 | 0.00 | 100 | 1122.3 |
| 20260503015247 | 3 | 157 | 1.6 | 3.2 | 0.00 | 0.00 | 0.00 | 100 | 1122.3 |
| 20260503014244 | 3 | 157 | 0.0 | 0.0 | 0.00 | 0.00 | 0.00 | 100 | 1122.5 |
| 20260503013245 | 3 | 157 | 0.0 | 0.0 | 0.00 | 0.00 | 0.00 | 100 | 1122.5 |
| 20260503011344 | 3 | 202 | 0.0 | 0.0 | 0.00 | 0.00 | 0.00 | 100 | 1122.5 |
| 20260503010346 | 3 | 202 | 0.0 | 1.6 | 0.00 | 0.00 | 0.00 | 100 | 1122.3 |
| 20260503005443 | 3 | 177 | 0.0 | 1.6 | 0.00 | 0.00 | 0.00 | 100 | 1122.5 |
| 20260503004446 | 3 | 157 | 0.0 | 1.6 | 0.00 | 0.00 | 0.00 | 100 | 1122.3 |
| 20260503003446 | 3 | 157 | 0.0 | 0.0 | 0.00 | 0.00 | 0.00 | 100 | 1122.3 |
| 20260503002544 | 3 | 157 | 0.0 | 1.6 | 0.00 | 0.00 | 0.00 | 100 | 1122.3 |